User: anonymous   Login
Location: Unspecified
(0.0000°N, 0.0000°E)
Time: 03:27:22
(UTC+00:00)
Language:

USA 238 DEB - Orbit

View from above orbital plane
View from above orbital plane
View from above satellite
View from above satellite

Ground track
Ground track

The orbit data is extracted from the following two-line orbital elements,

1 38773U 12048P   17134.84300340 0.00000000  00000-0  00000-0 0    04
2 38773  63.4356  25.9825 0024000  13.5135 346.4865 13.40861540    00
Epoch (UTC): 14 May 2017 20:13:55
Eccentricity: 0.0024000
inclination: 63.4356°
perigee height: 1088 km
apogee height: 1124 km
right ascension of ascending node: 25.9825°
argument of perigee: 13.5135°
revolutions per day: 13.40861540
mean anomaly at epoch: 346.4865°
orbit number at epoch: 0

The dashed part of the orbit path shows where the satellite is in the earth's shadow,  

DLR